Year,Month,Day,Hour,Minute,Value (Times are PST for temperature in C)
2008,09,21,00,00,10.70
2008,09,21,00,01,10.70
2008,09,21,00,02,10.70
2008,09,21,00,03,10.70
2008,09,21,00,04,10.70
2008,09,21,00,05,10.70
2008,09,21,00,06,10.70
2008,09,21,00,07,10.70
2008,09,21,00,08,10.70
2008,09,21,00,09,10.70
2008,09,21,00,10,10.70
2008,09,21,00,11,10.70
2008,09,21,00,12,10.70
2008,09,21,00,13,10.80
2008,09,21,00,14,10.80
2008,09,21,00,15,10.80
2008,09,21,00,16,10.80
2008,09,21,00,17,10.80
2008,09,21,00,18,10.80
2008,09,21,00,19,10.80
2008,09,21,00,20,10.80
2008,09,21,00,21,10.80
2008,09,21,00,22,10.80
2008,09,21,00,23,10.80
2008,09,21,00,24,10.80
2008,09,21,00,25,10.80
2008,09,21,00,26,10.80
2008,09,21,00,27,10.80
2008,09,21,00,28,10.80
2008,09,21,00,29,10.80
2008,09,21,00,30,10.80
2008,09,21,00,31,10.80
2008,09,21,00,32,10.80
2008,09,21,00,33,10.80
2008,09,21,00,34,10.80
2008,09,21,00,35,10.80
2008,09,21,00,36,10.90
2008,09,21,00,37,10.90
2008,09,21,00,38,10.90
2008,09,21,00,39,10.90
2008,09,21,00,40,10.90
2008,09,21,00,41,10.90
2008,09,21,00,42,11.00
2008,09,21,00,43,11.00
2008,09,21,00,44,11.00
2008,09,21,00,45,11.00
2008,09,21,00,46,11.00
2008,09,21,00,47,11.00
2008,09,21,00,48,11.00
2008,09,21,00,49,11.00
2008,09,21,00,50,11.10
2008,09,21,00,51,11.10
2008,09,21,00,52,11.10
2008,09,21,00,53,11.10
2008,09,21,00,54,11.10
2008,09,21,00,55,11.10
2008,09,21,00,56,11.10
2008,09,21,00,57,11.10
2008,09,21,00,58,11.10
2008,09,21,00,59,11.10
2008,09,21,01,00,11.10
2008,09,21,01,01,11.10
2008,09,21,01,02,11.10
2008,09,21,01,03,11.10
2008,09,21,01,04,11.10
2008,09,21,01,05,11.10
2008,09,21,01,06,11.10
2008,09,21,01,07,11.10
2008,09,21,01,08,11.10
2008,09,21,01,09,11.10
2008,09,21,01,10,11.20
2008,09,21,01,11,11.20
2008,09,21,01,12,11.20
2008,09,21,01,13,11.20
2008,09,21,01,14,11.20
2008,09,21,01,15,11.20
2008,09,21,01,16,11.20
2008,09,21,01,17,11.20
2008,09,21,01,18,11.20
2008,09,21,01,19,11.20
2008,09,21,01,20,11.20
2008,09,21,01,21,11.30
2008,09,21,01,22,11.30
2008,09,21,01,23,11.30
2008,09,21,01,24,11.30
2008,09,21,01,25,11.30
2008,09,21,01,26,11.30
2008,09,21,01,27,11.30
2008,09,21,01,28,11.30
2008,09,21,01,29,11.30
2008,09,21,01,30,11.30
2008,09,21,01,31,11.30
2008,09,21,01,32,11.20
2008,09,21,01,33,11.20
2008,09,21,01,34,11.20
2008,09,21,01,35,11.20
2008,09,21,01,36,11.20
2008,09,21,01,37,11.20
2008,09,21,01,38,11.20
2008,09,21,01,39,11.20
2008,09,21,01,40,11.20
2008,09,21,01,41,11.20
2008,09,21,01,42,11.30
2008,09,21,01,43,11.30
2008,09,21,01,44,11.30
2008,09,21,01,45,11.30
2008,09,21,01,46,11.30
2008,09,21,01,47,11.30
2008,09,21,01,48,11.40
2008,09,21,01,49,11.40
2008,09,21,01,50,11.50
2008,09,21,01,51,11.50
2008,09,21,01,52,11.50
2008,09,21,01,53,11.50
2008,09,21,01,54,11.60
2008,09,21,01,55,11.60
2008,09,21,01,56,11.70
2008,09,21,01,57,11.70
2008,09,21,01,58,11.70
2008,09,21,01,59,11.70
2008,09,21,02,00,11.70
2008,09,21,02,01,11.70
2008,09,21,02,02,11.70
2008,09,21,02,03,11.70
2008,09,21,02,04,11.70
2008,09,21,02,05,11.70
2008,09,21,02,06,11.70
2008,09,21,02,07,11.70
2008,09,21,02,08,11.70
2008,09,21,02,09,11.70
2008,09,21,02,10,11.70
2008,09,21,02,11,11.70
2008,09,21,02,12,11.60
2008,09,21,02,13,11.60
2008,09,21,02,14,11.60
2008,09,21,02,15,11.60
2008,09,21,02,16,11.60
2008,09,21,02,17,11.60
2008,09,21,02,18,11.50
2008,09,21,02,19,11.50
2008,09,21,02,20,11.50
2008,09,21,02,21,11.50
2008,09,21,02,22,11.40
2008,09,21,02,23,11.40
2008,09,21,02,24,11.40
2008,09,21,02,25,11.40
2008,09,21,02,26,11.40
2008,09,21,02,27,11.40
2008,09,21,02,28,11.40
2008,09,21,02,29,11.40
2008,09,21,02,30,11.30
2008,09,21,02,31,11.30
2008,09,21,02,32,11.30
2008,09,21,02,33,11.30
2008,09,21,02,34,11.30
2008,09,21,02,35,11.30
2008,09,21,02,36,11.30
2008,09,21,02,37,11.30
2008,09,21,02,38,11.30
2008,09,21,02,39,11.30
2008,09,21,02,40,11.40
2008,09,21,02,41,11.40
2008,09,21,02,42,11.50
2008,09,21,02,43,11.60
2008,09,21,02,44,11.70
2008,09,21,02,45,11.80
2008,09,21,02,46,11.80
2008,09,21,02,47,11.90
2008,09,21,02,48,11.90
2008,09,21,02,49,12.00
2008,09,21,02,50,12.00
2008,09,21,02,51,12.10
2008,09,21,02,52,12.10
2008,09,21,02,53,12.10
2008,09,21,02,54,12.10
2008,09,21,02,55,12.10
2008,09,21,02,56,12.20
2008,09,21,02,57,12.20
2008,09,21,02,58,12.20
2008,09,21,02,59,12.20
2008,09,21,03,00,12.20
2008,09,21,03,01,12.20
2008,09,21,03,02,12.20
2008,09,21,03,03,12.20
2008,09,21,03,04,12.20
2008,09,21,03,05,12.20
2008,09,21,03,06,12.20
2008,09,21,03,07,12.20
2008,09,21,03,08,12.20
2008,09,21,03,09,12.30
2008,09,21,03,10,12.30
2008,09,21,03,11,12.30
2008,09,21,03,12,12.30
2008,09,21,03,13,12.30
2008,09,21,03,14,12.30
2008,09,21,03,15,12.30
2008,09,21,03,16,12.30
2008,09,21,03,17,12.30
2008,09,21,03,18,12.30
2008,09,21,03,19,12.30
2008,09,21,03,20,12.30
2008,09,21,03,21,12.30
2008,09,21,03,22,12.30
2008,09,21,03,23,12.30
2008,09,21,03,24,12.30
2008,09,21,03,25,12.30
2008,09,21,03,26,12.20
2008,09,21,03,27,12.20
2008,09,21,03,28,12.20
2008,09,21,03,29,12.20
2008,09,21,03,30,12.20
2008,09,21,04,02,11.70
2008,09,21,04,03,11.70
2008,09,21,04,04,11.70
2008,09,21,04,05,11.70
2008,09,21,04,06,11.70
2008,09,21,04,07,11.70
2008,09,21,04,08,11.70
2008,09,21,04,09,11.70
2008,09,21,04,10,11.70
2008,09,21,04,11,11.70
2008,09,21,04,12,11.70
2008,09,21,04,13,11.60
2008,09,21,04,14,11.60
2008,09,21,04,15,11.60
2008,09,21,04,16,11.60
2008,09,21,04,17,11.60
2008,09,21,04,18,11.60
2008,09,21,04,19,11.60
2008,09,21,04,20,11.60
2008,09,21,04,21,11.60
2008,09,21,04,22,11.60
2008,09,21,04,23,11.60
2008,09,21,04,24,11.60
2008,09,21,04,25,11.60
2008,09,21,04,26,11.60
2008,09,21,04,27,11.60
2008,09,21,04,28,11.60
2008,09,21,04,29,11.60
2008,09,21,04,30,11.60
2008,09,21,04,31,11.60
2008,09,21,04,32,11.60
2008,09,21,04,33,11.60
2008,09,21,04,34,11.60
2008,09,21,04,35,11.60
2008,09,21,04,36,11.60
2008,09,21,04,37,11.60
2008,09,21,04,38,11.60
2008,09,21,04,39,11.60
2008,09,21,04,40,11.60
2008,09,21,04,41,11.60
2008,09,21,04,42,11.60
2008,09,21,04,43,11.60
2008,09,21,04,44,11.60
2008,09,21,04,45,11.60
2008,09,21,04,46,11.60
2008,09,21,04,47,11.60
2008,09,21,04,48,11.60
2008,09,21,04,49,11.60
2008,09,21,04,50,11.60
2008,09,21,04,51,11.60
2008,09,21,04,52,11.60
2008,09,21,04,53,11.60
2008,09,21,04,54,11.60
2008,09,21,04,55,11.60
2008,09,21,04,56,11.70
2008,09,21,04,57,11.70
2008,09,21,04,58,11.70
2008,09,21,04,59,11.70
2008,09,21,05,00,11.70
2008,09,21,05,01,11.80
2008,09,21,05,02,11.80
2008,09,21,05,03,11.80
2008,09,21,05,04,11.80
2008,09,21,05,05,11.80
2008,09,21,05,06,11.80
2008,09,21,05,07,11.80
2008,09,21,05,08,11.80
2008,09,21,05,09,11.80
2008,09,21,05,10,11.80
2008,09,21,05,11,11.80
2008,09,21,05,12,11.80
2008,09,21,05,13,11.80
2008,09,21,05,14,11.80
2008,09,21,05,15,11.90
2008,09,21,05,16,11.90
2008,09,21,05,17,11.90
2008,09,21,05,18,11.90
2008,09,21,05,19,11.90
2008,09,21,05,20,11.90
2008,09,21,05,21,11.90
2008,09,21,05,22,11.90
2008,09,21,05,23,11.90
2008,09,21,05,24,11.90
2008,09,21,05,25,11.90
2008,09,21,05,26,11.90
2008,09,21,05,27,11.90
2008,09,21,05,28,11.90
2008,09,21,05,29,11.90
2008,09,21,05,30,11.90
2008,09,21,05,31,11.90
2008,09,21,05,32,11.90
2008,09,21,05,33,11.90
2008,09,21,05,34,11.90
2008,09,21,05,35,11.90
2008,09,21,05,36,11.90
2008,09,21,05,37,11.90
2008,09,21,05,38,11.90
2008,09,21,05,39,11.90
2008,09,21,05,40,11.90
2008,09,21,05,41,11.90
2008,09,21,05,42,11.80
2008,09,21,05,43,11.80
2008,09,21,05,44,11.80
2008,09,21,05,45,11.80
2008,09,21,05,46,11.80
2008,09,21,05,47,11.80
2008,09,21,05,48,11.80
2008,09,21,05,49,11.80
2008,09,21,05,50,11.80
2008,09,21,05,51,11.80
2008,09,21,05,52,11.80
2008,09,21,05,53,11.80
2008,09,21,05,54,11.80
2008,09,21,05,55,11.80
2008,09,21,05,56,11.80
2008,09,21,05,57,11.80
2008,09,21,05,58,11.80
2008,09,21,05,59,11.80
2008,09,21,06,00,11.80
2008,09,21,06,01,11.80
2008,09,21,06,02,11.70
2008,09,21,06,03,11.70
2008,09,21,06,04,11.70
2008,09,21,06,05,11.70
2008,09,21,06,06,11.70
2008,09,21,06,07,11.70
2008,09,21,06,08,11.70
2008,09,21,06,09,11.70
2008,09,21,06,10,11.70
2008,09,21,06,11,11.70
2008,09,21,06,12,11.70
2008,09,21,06,13,11.70
2008,09,21,06,14,11.70
2008,09,21,06,15,11.70
2008,09,21,06,16,11.60
2008,09,21,06,17,11.60
2008,09,21,06,18,11.60
2008,09,21,06,19,11.60
2008,09,21,06,20,11.60
2008,09,21,06,21,11.60
2008,09,21,06,22,11.60
2008,09,21,06,23,11.60
2008,09,21,06,24,11.60
2008,09,21,06,25,11.60
2008,09,21,06,26,11.60
2008,09,21,06,27,11.60
2008,09,21,06,28,11.60
2008,09,21,06,29,11.60
2008,09,21,06,30,11.60
2008,09,21,06,31,11.60
2008,09,21,06,32,11.60
2008,09,21,06,33,11.60
2008,09,21,06,34,11.60
2008,09,21,06,35,11.60
2008,09,21,06,36,11.50
2008,09,21,06,37,11.50
2008,09,21,06,38,11.50
2008,09,21,06,39,11.50
2008,09,21,06,40,11.50
2008,09,21,06,41,11.50
2008,09,21,06,42,11.40
2008,09,21,06,43,11.40
2008,09,21,06,44,11.40
2008,09,21,06,45,11.40
2008,09,21,06,46,11.40
2008,09,21,06,47,11.50
2008,09,21,06,48,11.50
2008,09,21,06,49,11.50
2008,09,21,06,50,11.50
2008,09,21,06,51,11.50
2008,09,21,06,52,11.40
2008,09,21,06,53,11.40
2008,09,21,06,54,11.50
2008,09,21,06,55,11.50
2008,09,21,06,56,11.50
2008,09,21,06,57,11.50
2008,09,21,06,58,11.50
2008,09,21,06,59,11.50
2008,09,21,07,00,11.50
2008,09,21,07,01,11.50
2008,09,21,07,02,11.50
2008,09,21,07,03,11.50
2008,09,21,07,04,11.50
2008,09,21,07,05,11.50
2008,09,21,07,06,11.40
2008,09,21,07,07,11.40
2008,09,21,07,08,11.40
2008,09,21,07,09,11.40
2008,09,21,07,10,11.40
2008,09,21,07,11,11.40
2008,09,21,07,12,11.40
2008,09,21,07,13,11.40
2008,09,21,07,14,11.40
2008,09,21,07,15,11.40
2008,09,21,07,16,11.40
2008,09,21,07,17,11.40
2008,09,21,07,18,11.40
2008,09,21,07,19,11.40
2008,09,21,07,20,11.40
2008,09,21,07,21,11.40
2008,09,21,07,22,11.50
2008,09,21,07,23,11.40
2008,09,21,07,24,11.50
2008,09,21,07,25,11.50
2008,09,21,07,26,11.50
2008,09,21,07,27,11.50
2008,09,21,07,28,11.50
2008,09,21,07,29,11.50
2008,09,21,07,30,11.50
2008,09,21,07,31,11.50
2008,09,21,07,32,11.50
2008,09,21,07,33,11.50
2008,09,21,07,34,11.60
2008,09,21,07,35,11.60
2008,09,21,07,36,11.60
2008,09,21,07,37,11.60
2008,09,21,07,38,11.60
2008,09,21,07,39,11.70
2008,09,21,07,40,11.70
2008,09,21,07,41,11.70
2008,09,21,07,42,11.70
2008,09,21,07,43,11.70
2008,09,21,07,44,11.80
2008,09,21,07,45,11.80
2008,09,21,07,46,11.80
2008,09,21,07,47,11.80
2008,09,21,07,48,11.80
2008,09,21,07,49,11.80
2008,09,21,07,50,11.80
2008,09,21,07,51,11.80
2008,09,21,07,52,11.80
2008,09,21,07,53,11.80
2008,09,21,07,54,11.80
2008,09,21,07,55,11.80
2008,09,21,07,56,11.80
2008,09,21,07,57,11.80
2008,09,21,07,58,11.90
2008,09,21,07,59,11.90
2008,09,21,08,00,11.90
2008,09,21,08,01,11.90
2008,09,21,08,02,11.90
2008,09,21,08,03,12.00
2008,09,21,08,04,12.00
2008,09,21,08,05,12.00
2008,09,21,08,06,12.10
2008,09,21,08,07,12.10
2008,09,21,08,08,12.10
2008,09,21,08,09,12.10
2008,09,21,08,10,12.10
2008,09,21,08,11,12.20
2008,09,21,08,12,12.20
2008,09,21,08,13,12.20
2008,09,21,08,14,12.20
2008,09,21,08,15,12.20
2008,09,21,08,16,12.20
2008,09,21,08,17,12.30
2008,09,21,08,18,12.30
2008,09,21,08,19,12.30
2008,09,21,08,20,12.30
2008,09,21,08,21,12.30
2008,09,21,08,22,12.40
2008,09,21,08,23,12.40
2008,09,21,08,24,12.40
2008,09,21,08,25,12.50
2008,09,21,08,26,12.50
2008,09,21,08,27,12.50
2008,09,21,08,28,12.50
2008,09,21,08,29,12.60
2008,09,21,08,30,12.60
2008,09,21,08,31,12.60
2008,09,21,08,32,12.60
2008,09,21,08,33,12.70
2008,09,21,08,34,12.70
2008,09,21,08,35,12.70
2008,09,21,08,36,12.70
2008,09,21,08,37,12.80
2008,09,21,08,38,12.80
2008,09,21,08,39,12.80
2008,09,21,08,40,12.80
2008,09,21,08,41,12.90
2008,09,21,08,42,12.90
2008,09,21,08,43,12.90
2008,09,21,08,44,12.90
2008,09,21,08,45,13.00
2008,09,21,08,46,13.00
2008,09,21,08,47,13.10
2008,09,21,08,48,13.10
2008,09,21,08,49,13.20
2008,09,21,08,50,13.20
2008,09,21,08,51,13.20
2008,09,21,08,52,13.30
2008,09,21,08,53,13.30
2008,09,21,08,54,13.30
2008,09,21,08,55,13.30
2008,09,21,08,56,13.30
2008,09,21,08,57,13.40
2008,09,21,08,58,13.40
2008,09,21,08,59,13.40
2008,09,21,09,00,13.40
2008,09,21,09,01,13.50
2008,09,21,09,02,13.50
2008,09,21,09,03,13.50
2008,09,21,09,04,13.50
2008,09,21,09,05,13.60
2008,09,21,09,06,13.60
2008,09,21,09,07,13.60
2008,09,21,09,08,13.60
2008,09,21,09,09,13.60
2008,09,21,09,10,13.70
2008,09,21,09,11,13.70
2008,09,21,09,12,13.70
2008,09,21,09,13,13.80
2008,09,21,09,14,13.80
2008,09,21,09,15,13.80
2008,09,21,09,16,13.80
2008,09,21,09,17,13.90
2008,09,21,09,18,13.90
2008,09,21,09,19,13.90
2008,09,21,09,20,13.90
2008,09,21,09,21,14.00
2008,09,21,09,22,14.00
2008,09,21,09,23,14.10
2008,09,21,09,24,14.10
2008,09,21,09,25,14.20
2008,09,21,09,26,14.20
2008,09,21,09,27,14.30
2008,09,21,09,28,14.30
2008,09,21,09,29,14.40
2008,09,21,09,30,14.40
2008,09,21,09,31,14.40
2008,09,21,09,32,14.50
2008,09,21,09,33,14.50
2008,09,21,09,34,14.60
2008,09,21,09,35,14.60
2008,09,21,09,36,14.60
2008,09,21,09,37,14.60
2008,09,21,09,38,14.60
2008,09,21,09,39,14.70
2008,09,21,09,40,14.70
2008,09,21,09,41,14.70
2008,09,21,09,42,14.70
2008,09,21,09,43,14.80
2008,09,21,09,44,14.80
2008,09,21,09,45,14.80
2008,09,21,09,46,14.80
2008,09,21,09,47,14.80
2008,09,21,09,48,14.90
2008,09,21,09,49,14.90
2008,09,21,09,50,14.90
2008,09,21,09,51,15.00
2008,09,21,09,52,15.00
2008,09,21,09,53,15.00
2008,09,21,09,54,15.00
2008,09,21,09,55,15.00
2008,09,21,09,56,15.00
2008,09,21,09,57,15.00
2008,09,21,09,58,15.10
2008,09,21,09,59,15.30
2008,09,21,10,00,15.30
2008,09,21,10,01,15.40
2008,09,21,10,02,15.50
2008,09,21,10,03,15.50
2008,09,21,10,04,15.50
2008,09,21,10,05,15.50
2008,09,21,10,06,15.50
2008,09,21,10,07,15.60
2008,09,21,10,08,15.60
2008,09,21,10,09,15.60
2008,09,21,10,10,15.70
2008,09,21,10,11,15.70
2008,09,21,10,12,15.80
2008,09,21,10,13,15.80
2008,09,21,10,14,15.80
2008,09,21,10,15,15.90
2008,09,21,10,16,15.90
2008,09,21,10,17,15.90
2008,09,21,10,18,16.00
2008,09,21,10,19,16.00
2008,09,21,10,20,16.00
2008,09,21,10,21,16.00
2008,09,21,10,22,16.00
2008,09,21,10,23,15.90
2008,09,21,10,24,15.90
2008,09,21,10,25,15.90
2008,09,21,10,26,16.00
2008,09,21,10,27,16.00
2008,09,21,10,28,16.10
2008,09,21,10,29,16.20
2008,09,21,10,30,16.20
2008,09,21,10,31,16.30
2008,09,21,10,32,16.40
2008,09,21,10,33,16.50
2008,09,21,10,34,16.60
2008,09,21,10,35,16.70
2008,09,21,10,36,16.80
2008,09,21,10,37,16.80
2008,09,21,10,38,16.80
2008,09,21,10,39,16.90
2008,09,21,10,40,17.00
2008,09,21,10,41,17.00
2008,09,21,10,42,17.10
2008,09,21,10,43,17.10
2008,09,21,10,44,17.10
2008,09,21,10,45,17.20
2008,09,21,10,46,17.30
2008,09,21,10,47,17.40
2008,09,21,10,48,17.40
2008,09,21,10,49,17.50
2008,09,21,10,50,17.60
2008,09,21,10,51,17.70
2008,09,21,10,52,17.80
2008,09,21,10,53,17.80
2008,09,21,10,54,17.70
2008,09,21,10,55,17.70
2008,09,21,10,56,17.70
2008,09,21,10,57,17.60
2008,09,21,10,58,17.60
2008,09,21,10,59,17.60
2008,09,21,11,00,17.60
2008,09,21,11,01,17.70
2008,09,21,11,02,17.70
2008,09,21,11,03,17.70
2008,09,21,11,04,17.90
2008,09,21,11,05,18.00
2008,09,21,11,06,18.20
2008,09,21,11,07,18.40
2008,09,21,11,08,18.60
2008,09,21,11,09,18.70
2008,09,21,11,10,18.90
2008,09,21,11,11,19.10
2008,09,21,11,12,19.20
2008,09,21,11,13,19.30
2008,09,21,11,14,19.30
2008,09,21,11,15,19.10
2008,09,21,11,16,18.90
2008,09,21,11,17,18.70
2008,09,21,11,18,18.50
2008,09,21,11,19,18.30
2008,09,21,11,20,18.20
2008,09,21,11,21,18.10
2008,09,21,11,22,18.00
2008,09,21,11,23,18.00
2008,09,21,11,24,17.90
2008,09,21,11,25,17.90
2008,09,21,11,26,17.80
2008,09,21,11,27,17.70
2008,09,21,11,28,17.70
2008,09,21,11,29,17.60
2008,09,21,11,30,17.60
2008,09,21,11,31,17.60
2008,09,21,11,32,17.60
2008,09,21,11,33,17.60
2008,09,21,11,34,17.70
2008,09,21,11,35,17.70
2008,09,21,11,36,17.80
2008,09,21,11,37,17.90
2008,09,21,11,38,17.90
2008,09,21,11,39,17.90
2008,09,21,11,40,17.90
2008,09,21,11,41,17.90
2008,09,21,11,42,18.00
2008,09,21,11,43,18.00
2008,09,21,11,44,18.00
2008,09,21,11,45,18.00
2008,09,21,11,46,18.00
2008,09,21,11,47,18.00
2008,09,21,11,48,18.00
2008,09,21,11,49,18.00
2008,09,21,11,50,18.00
2008,09,21,11,51,18.00
2008,09,21,11,52,18.00
2008,09,21,11,53,18.00
2008,09,21,11,54,17.90
2008,09,21,11,55,17.80
2008,09,21,11,56,17.60
2008,09,21,11,57,17.40
2008,09,21,11,58,17.30
2008,09,21,11,59,17.10
2008,09,21,12,00,16.90
2008,09,21,12,01,16.70
2008,09,21,12,02,16.50
2008,09,21,12,03,16.40
2008,09,21,12,04,16.40
2008,09,21,12,05,16.40
2008,09,21,12,06,16.50
2008,09,21,12,07,16.50
2008,09,21,12,08,16.50
2008,09,21,12,09,16.50
2008,09,21,12,10,16.40
2008,09,21,12,11,16.50
2008,09,21,12,12,16.50
2008,09,21,12,13,16.60
2008,09,21,12,14,16.60
2008,09,21,12,15,16.60
2008,09,21,12,16,16.70
2008,09,21,12,17,16.80
2008,09,21,12,18,16.90
2008,09,21,12,19,16.90
2008,09,21,12,20,17.00
2008,09,21,12,21,17.10
2008,09,21,12,22,17.10
2008,09,21,12,23,17.20
2008,09,21,12,24,17.20
2008,09,21,12,25,17.10
2008,09,21,12,26,17.00
2008,09,21,12,27,16.90
2008,09,21,12,28,16.80
2008,09,21,12,29,16.70
2008,09,21,12,30,16.60
2008,09,21,12,31,16.60
2008,09,21,12,32,16.50
2008,09,21,12,33,16.50
2008,09,21,12,34,16.40
2008,09,21,12,35,16.40
2008,09,21,12,36,16.40
2008,09,21,12,37,16.40
2008,09,21,12,38,16.40
2008,09,21,12,39,16.30
2008,09,21,12,40,16.30
2008,09,21,12,41,16.40
2008,09,21,12,42,16.50
2008,09,21,12,43,16.70
2008,09,21,12,44,16.80
2008,09,21,12,45,16.90
2008,09,21,12,46,16.90
2008,09,21,12,47,16.90
2008,09,21,12,48,16.90
2008,09,21,12,49,16.90
2008,09,21,12,50,16.90
2008,09,21,12,51,16.80
2008,09,21,12,52,16.80
2008,09,21,12,53,16.80
2008,09,21,12,54,16.80
2008,09,21,12,55,16.80
2008,09,21,12,56,16.90
2008,09,21,12,57,16.90
2008,09,21,12,58,17.10
2008,09,21,12,59,17.30
2008,09,21,13,00,17.40
2008,09,21,13,01,17.40
2008,09,21,13,02,17.40
2008,09,21,13,03,17.40
2008,09,21,13,04,17.40
2008,09,21,13,05,17.30
2008,09,21,13,06,17.30
2008,09,21,13,07,17.30
2008,09,21,13,08,17.30
2008,09,21,13,09,17.30
2008,09,21,13,10,17.30
2008,09,21,13,11,17.30
2008,09,21,13,12,17.30
2008,09,21,13,13,17.30
2008,09,21,13,14,17.40
2008,09,21,13,15,17.60
2008,09,21,13,16,17.80
2008,09,21,13,17,17.90
2008,09,21,13,18,17.90
2008,09,21,13,19,17.90
2008,09,21,13,20,17.90
2008,09,21,13,21,17.90
2008,09,21,13,22,17.90
2008,09,21,13,23,17.90
2008,09,21,13,24,17.90
2008,09,21,13,25,17.90
2008,09,21,13,26,18.00
2008,09,21,13,27,18.10
2008,09,21,13,28,18.10
2008,09,21,13,29,18.20
2008,09,21,13,30,18.20
2008,09,21,13,31,18.20
2008,09,21,13,32,18.20
2008,09,21,13,33,18.20
2008,09,21,13,34,18.20
2008,09,21,13,35,18.20
2008,09,21,13,36,18.30
2008,09,21,13,37,18.30
2008,09,21,13,38,18.30
2008,09,21,13,39,18.30
2008,09,21,13,40,18.30
2008,09,21,13,41,18.30
2008,09,21,13,42,18.30
2008,09,21,13,43,18.30
2008,09,21,13,44,18.30
2008,09,21,13,45,18.20
2008,09,21,13,46,18.20
2008,09,21,13,47,18.30
2008,09,21,13,48,18.30
2008,09,21,13,49,18.30
2008,09,21,13,50,18.30
2008,09,21,13,51,18.40
2008,09,21,13,52,18.50
2008,09,21,13,53,18.60
2008,09,21,13,54,18.70
2008,09,21,13,55,18.70
2008,09,21,13,56,18.80
2008,09,21,13,57,18.80
2008,09,21,13,58,18.80
2008,09,21,13,59,18.90
2008,09,21,14,00,18.90
2008,09,21,14,01,18.80
2008,09,21,14,02,18.90
2008,09,21,14,03,18.90
2008,09,21,14,04,19.00
2008,09,21,14,05,19.10
2008,09,21,14,06,19.20
2008,09,21,14,07,19.20
2008,09,21,14,08,19.30
2008,09,21,14,09,19.30
2008,09,21,14,10,19.30
2008,09,21,14,11,19.20
2008,09,21,14,12,19.20
2008,09,21,14,13,19.20
2008,09,21,14,14,19.20
2008,09,21,14,15,19.30
2008,09,21,14,16,19.40
2008,09,21,14,17,19.50
2008,09,21,14,18,19.60
2008,09,21,14,19,19.50
2008,09,21,14,20,19.40
2008,09,21,14,21,19.50
2008,09,21,14,22,19.50
2008,09,21,14,23,19.60
2008,09,21,14,24,19.70
2008,09,21,14,25,19.80
2008,09,21,14,26,19.90
2008,09,21,14,27,20.00
2008,09,21,14,28,20.10
2008,09,21,14,29,20.00
2008,09,21,14,30,19.90
2008,09,21,14,31,19.70
2008,09,21,14,32,19.60
2008,09,21,14,33,19.40
2008,09,21,14,34,19.30
2008,09,21,14,35,19.20
2008,09,21,14,36,19.10
2008,09,21,14,37,19.10
2008,09,21,14,38,19.10
2008,09,21,14,39,19.10
2008,09,21,14,40,19.10
2008,09,21,14,41,19.10
2008,09,21,14,42,19.10
2008,09,21,14,43,19.20
2008,09,21,14,44,19.20
2008,09,21,14,45,19.30
2008,09,21,14,46,19.40
2008,09,21,14,47,19.40
2008,09,21,14,48,19.50
2008,09,21,14,49,19.60
2008,09,21,14,50,19.60
2008,09,21,14,51,19.70
2008,09,21,14,52,19.80
2008,09,21,14,53,19.90
2008,09,21,14,54,20.10
2008,09,21,14,55,20.20
2008,09,21,14,56,20.30
2008,09,21,14,57,20.40
2008,09,21,14,58,20.50
2008,09,21,14,59,20.50
2008,09,21,15,00,20.60
2008,09,21,15,01,20.60
2008,09,21,15,02,20.60
2008,09,21,15,03,20.60
2008,09,21,15,04,20.60
2008,09,21,15,05,20.60
2008,09,21,15,06,20.50
2008,09,21,15,07,20.40
2008,09,21,15,08,20.20
2008,09,21,15,09,19.90
2008,09,21,15,10,19.80
2008,09,21,15,11,19.70
2008,09,21,15,12,19.40
2008,09,21,15,13,19.20
2008,09,21,15,14,19.10
2008,09,21,15,15,18.90
2008,09,21,15,16,18.80
2008,09,21,15,17,18.70
2008,09,21,15,18,18.70
2008,09,21,15,19,18.60
2008,09,21,15,20,18.60
2008,09,21,15,21,18.60
2008,09,21,15,22,18.50
2008,09,21,15,23,18.40
2008,09,21,15,24,18.40
2008,09,21,15,25,18.40
2008,09,21,15,26,18.40
2008,09,21,15,27,18.30
2008,09,21,15,28,18.30
2008,09,21,15,29,18.20
2008,09,21,15,30,18.10
2008,09,21,15,31,18.00
2008,09,21,15,32,18.00
2008,09,21,15,33,17.90
2008,09,21,15,34,17.80
2008,09,21,15,35,17.80
2008,09,21,15,36,17.70
2008,09,21,15,37,17.70
2008,09,21,15,38,17.60
2008,09,21,15,39,17.60
2008,09,21,15,40,17.60
2008,09,21,15,41,17.60
2008,09,21,15,42,17.70
2008,09,21,15,43,17.70
2008,09,21,15,44,17.70
2008,09,21,15,45,17.70
2008,09,21,15,46,17.70
2008,09,21,15,47,17.70
2008,09,21,15,48,17.70
2008,09,21,15,49,17.70
2008,09,21,15,50,17.60
2008,09,21,15,51,17.60
2008,09,21,15,52,17.60
2008,09,21,15,53,17.60
2008,09,21,15,54,17.70
2008,09,21,15,55,17.70
2008,09,21,15,56,17.70
2008,09,21,15,57,17.70
2008,09,21,15,58,17.70
2008,09,21,15,59,17.70
2008,09,21,16,00,17.70
2008,09,21,16,01,17.70
2008,09,21,16,02,17.80
2008,09,21,16,03,17.80
2008,09,21,16,04,17.90
2008,09,21,16,05,17.90
2008,09,21,16,06,18.00
2008,09,21,16,07,18.00
2008,09,21,16,08,18.00
2008,09,21,16,09,18.00
2008,09,21,16,10,18.00
2008,09,21,16,11,18.00
2008,09,21,16,12,18.00
2008,09,21,16,13,18.00
2008,09,21,16,14,18.00
2008,09,21,16,15,18.00
2008,09,21,16,16,18.00
2008,09,21,16,17,17.90
2008,09,21,16,18,17.90
2008,09,21,16,19,17.80
2008,09,21,16,20,17.70
2008,09,21,16,21,17.60
2008,09,21,16,22,17.50
2008,09,21,16,23,17.40
2008,09,21,16,24,17.40
2008,09,21,16,25,17.30
2008,09,21,16,26,17.30
2008,09,21,16,27,17.20
2008,09,21,16,28,17.20
2008,09,21,16,29,17.20
2008,09,21,16,30,17.20
2008,09,21,16,31,17.30
2008,09,21,16,32,17.40
2008,09,21,16,33,17.50
2008,09,21,16,34,17.60
2008,09,21,16,35,17.70
2008,09,21,16,36,17.80
2008,09,21,16,37,17.90
2008,09,21,16,38,18.00
2008,09,21,16,39,18.00
2008,09,21,16,40,18.00
2008,09,21,16,41,18.10
2008,09,21,16,42,18.10
2008,09,21,16,43,18.10
2008,09,21,16,44,18.10
2008,09,21,16,45,18.20
2008,09,21,16,46,18.20
2008,09,21,16,47,18.30
2008,09,21,16,48,18.30
2008,09,21,16,49,18.40
2008,09,21,16,50,18.50
2008,09,21,16,51,18.50
2008,09,21,16,52,18.70
2008,09,21,16,53,18.80
2008,09,21,16,54,18.90
2008,09,21,16,55,19.00
2008,09,21,16,56,19.00
2008,09,21,16,57,19.10
2008,09,21,16,58,19.10
2008,09,21,16,59,19.10
2008,09,21,17,00,19.10
2008,09,21,17,01,19.00
2008,09,21,17,02,18.90
2008,09,21,17,03,18.90
2008,09,21,17,04,18.90
2008,09,21,17,05,18.90
2008,09,21,17,06,19.00
2008,09,21,17,07,19.00
2008,09,21,17,08,18.90
2008,09,21,17,09,18.90
2008,09,21,17,10,18.90
2008,09,21,17,11,18.80
2008,09,21,17,12,18.70
2008,09,21,17,13,18.60
2008,09,21,17,14,18.60
2008,09,21,17,15,18.50
2008,09,21,17,16,18.50
2008,09,21,17,17,18.40
2008,09,21,17,18,18.40
2008,09,21,17,19,18.50
2008,09,21,17,20,18.50
2008,09,21,17,21,18.50
2008,09,21,17,22,18.50
2008,09,21,17,23,18.50
2008,09,21,17,24,18.50
2008,09,21,17,25,18.50
2008,09,21,17,26,18.50
2008,09,21,17,27,18.50
2008,09,21,17,28,18.50
2008,09,21,17,29,18.50
2008,09,21,17,30,18.50
2008,09,21,17,31,18.50
2008,09,21,17,32,18.50
2008,09,21,17,33,18.40
2008,09,21,17,34,18.40
2008,09,21,17,35,18.30
2008,09,21,17,36,18.30
2008,09,21,17,37,18.30
2008,09,21,17,38,18.20
2008,09,21,17,39,18.20
2008,09,21,17,40,18.20
2008,09,21,17,41,18.20
2008,09,21,17,42,18.30
2008,09,21,17,43,18.30
2008,09,21,17,44,18.30
2008,09,21,17,45,18.30
2008,09,21,17,46,18.30
2008,09,21,17,47,18.30
2008,09,21,17,48,18.30
2008,09,21,17,49,18.30
2008,09,21,17,50,18.20